EST,Max TemperatureF,Mean TemperatureF,Min TemperatureF,Max Dew PointF,MeanDew PointF,Min DewpointF,Max Humidity, Mean Humidity, Min Humidity, Max Sea Level PressureIn, Mean Sea Level PressureIn, Min Sea Level PressureIn, Max VisibilityMiles, Mean VisibilityMiles, Min VisibilityMiles, Max Wind SpeedMPH, Mean Wind SpeedMPH, Max Gust SpeedMPH,PrecipitationIn, CloudCover, Events, WindDirDegrees
2012-12-1,58,47,36,50,38,32,92,79,66,30.22,30.07,29.88,10,5,2,29,13,38,0.09,7,Rain,128
2012-12-2,56,45,33,48,43,32,92,79,66,30.10,29.97,29.86,10,5,1,22,7,31,0.01,5,Rain,251
2012-12-3,66,51,35,58,48,33,96,82,67,30.09,29.96,29.78,10,2,0,33,13,45,0.04,7,Fog-Rain,145
2012-12-4,58,47,35,52,39,21,80,67,53,30.23,30.00,29.82,10,10,4,23,11,31,0.03,2,Rain,275
2012-12-5,39,33,26,21,20,18,75,62,48,30.45,30.37,30.26,10,10,10,18,7,22,0.00,3,,55
2012-12-6,46,37,27,39,26,21,83,69,55,30.29,30.09,29.93,10,10,10,16,9,21,0.00,5,,162
2012-12-7,49,45,41,40,34,29,83,66,49,29.98,29.93,29.90,10,10,8,15,6,18,0.00,7,,348
2012-12-8,41,36,31,36,30,27,92,79,65,30.20,30.00,29.87,10,7,1,13,6,16,0.17,6,Rain-Snow,35
2012-12-9,35,34,32,30,28,25,85,77,69,30.19,29.92,29.68,10,6,1,18,11,28,0.10,7,Rain-Snow,79
2012-12-10,36,30,24,30,28,20,92,78,64,29.93,29.72,29.63,10,7,2,13,4,17,0.02,7,Rain-Snow,6
2012-12-11,36,30,24,27,23,19,85,69,52,30.09,29.97,29.92,10,7,0,28,11,35,0.12,8,Fog-Snow,194
2012-12-12,45,40,35,31,27,24,70,62,53,30.29,30.20,30.07,10,10,2,26,13,35,T,5,Snow,231
2012-12-13,46,43,39,35,32,29,70,60,49,30.28,30.20,30.10,10,10,10,26,17,35,0.00,0,,203
2012-12-14,50,39,28,34,31,26,92,71,50,30.25,30.17,30.13,10,8,3,14,4,20,0.00,0,,123
2012-12-15,48,41,34,45,36,29,93,79,64,30.11,29.80,29.58,10,5,2,22,11,29,0.57,7,Rain,121
2012-12-16,49,45,41,46,42,34,89,84,79,29.68,29.59,29.55,10,5,2,18,11,25,0.13,8,Rain,237
2012-12-17,42,38,34,34,31,25,79,70,60,29.73,29.70,29.67,10,10,10,13,7,17,0.00,8,,295
2012-12-18,40,34,28,32,29,25,96,80,64,29.79,29.73,29.68,10,6,1,13,5,16,0.05,7,Snow,122
2012-12-19,40,37,33,34,31,28,96,80,64,30.10,29.98,29.76,10,6,2,10,3,15,0.00,8,,347
2012-12-20,46,40,34,43,35,30,89,80,70,29.96,29.46,29.08,10,5,1,29,15,40,1.33,8,Rain-Snow,99
2012-12-21,36,34,31,31,28,21,89,78,66,30.07,29.58,29.20,10,4,0,35,23,56,0.11,8,Fog-Rain-Snow,331
2012-12-22,35,32,29,24,22,21,72,67,61,30.15,30.09,29.98,10,10,10,21,10,30,T,5,,283
2012-12-23,36,30,24,26,21,16,75,68,61,30.08,30.00,29.91,10,10,10,14,6,18,0.00,5,,349
2012-12-24,32,27,22,21,18,16,77,70,63,30.09,29.98,29.88,10,10,10,13,7,17,0.00,5,,46
2012-12-25,32,26,19,22,19,15,88,73,58,30.37,30.28,30.11,10,10,10,9,4,12,T,6,,54
2012-12-26,30,27,23,19,16,14,74,66,58,30.32,30.14,30.05,10,10,10,22,12,30,0.00,7,,24
2012-12-27,37,30,23,19,17,15,74,59,44,30.19,30.15,30.09,10,10,9,15,7,20,T,5,Snow,2
2012-12-28,30,25,19,27,22,16,85,77,68,30.18,30.07,29.94,10,5,0,13,7,15,0.06,8,Fog-Snow,106
2012-12-29,32,28,24,27,23,20,92,78,63,30.12,29.96,29.87,10,6,0,12,4,13,0.14,8,Fog-Snow,45
2012-12-30,38,32,25,31,22,19,81,75,69,30.29,30.20,30.07,10,10,7,23,11,28,0.01,7,,245
2012-12-31,39,33,26,30,24,15,78,71,63,30.09,30.01,29.94,10,9,5,28,15,36,0.00,6,,284